Regional Weather Roundup
Issued by NWS Wakefield, VA

Home | Current Version | Previous Version | Graphics & Text | Print | Product List | Glossary On
Versions: 1 2 3 4 5 6 7 8 9 10 11 12 13 14 15 16 17 18 19 20 21 22 23 24 25 26 27 28 29 30 31 32 33 34 35 36 37 38 39 40 41 42 43 44 45 46 47 48 49 50
000
ASUS41 KAKQ 291310
RWRAKQ

REGIONAL WEATHER ROUNDUP
NATIONAL WEATHER SERVICE WAKEFIELD VA
800 AM EST THU JAN 29 2015

Note: "fair" indicates few or no clouds below 12,000 feet with no
significant weather and/or obstructions to visibility. * = Denotes
station may not report precipitation (e.g., rain,snow,etc.),
thunder or fog.

VAZ042-051-052>054-056-291400-
NORTHERN VIRGINIA

CITY           SKY/WX    TMP DP  RH WIND       PRES   REMARKS
WASH NATIONAL  PTCLDY    29  14  53 CALM      30.34F
DULLES         MOCLDY    19  13  77 E5        30.29F
FORT BELVOIR   PTCLDY    18  15  85 SE1       30.33F
QUANTICO       MOCLDY    22  14  71 NW5       30.35S
FREDERICKSBRG* MOCLDY    21  16  79 CALM      30.32F
STAFFORD*      MOCLDY    19  14  82 CALM      30.36F
WARRENTON      PTCLDY    21  20  96 CALM      30.29F
CULPEPER*      CLOUDY    21  18  86 CALM      30.31F
MANASSAS*      CLEAR     19  18  93 CALM      30.31F
LEESBURG*      MOCLDY    23  18  80 CALM      30.30F
WINCHESTER     CLOUDY    23  12  63 W3        30.26R
FRONT ROYAL*   FAIR      21  18  86 CALM      30.25S
LURAY*         FAIR      23  19  86 CALM      30.24S
$$

VAZ048-049-060>072-079>083-291400-
CENTRAL AND SOUTH CENTRAL VIRGINIA

CITY           SKY/WX    TMP DP  RH WIND       PRES   REMARKS
RICHMOND       CLOUDY    24  18  77 CALM      30.35R
CHESTERFIELD*  FAIR      21   7  53 CALM      30.36R
PETERSBURG*    MOCLDY    21  18  90 CALM      30.36S
HANOVER        MOCLDY    21  15  78 CALM      30.36R
TAPPAHANNOCK*  MOCLDY    20  14  79 CALM      30.36R
QUINTON*       FAIR      21  14  75 CALM      30.35S
CHARLOTTSVILLE CLOUDY    23  13  65 CALM      30.30S
GORDONSVILLE*  FAIR      22  17  81 CALM      30.31R
ORANGE*        CLOUDY    23  19  86 CALM      30.32S
LOUISA*        CLOUDY    21  18  86 CALM      30.29F
BUMPASS*       FAIR      22  14  73 CALM      30.31F
FARMVILLE*     MOCLDY    20  19  94 CALM      30.31F
CREWE*         FAIR      20  17  86 CALM      30.32F
FORT PICKETT*  FAIR      22  17  82 CALM      30.33S
CHASE CITY*    FAIR      25  19  77 CALM      30.33S
CLARKSVILLE*   FAIR      21  19  93 CALM      30.33S
SOUTH HILL*    CLEAR     20  16  84 CALM      30.40R
LAWRENCEVILLE* FAIR      19  16  88 CALM      30.34S
EMPORIA*       PTCLDY    21  19  93 CALM      30.38R
$$

VAZ088>098-291400-
SOUTHEAST VIRGINIA

CITY           SKY/WX    TMP DP  RH WIND       PRES   REMARKS
NORFOLK        CLEAR     33  18  53 NE9       30.35R
VIRGINIA BEACH PTCLDY    27  18  69 CALM      30.35R
NORFOLK NAVAL  PTCLDY    35  21  56 N7        30.37R
WEST POINT*    CLEAR     23  18  80 CALM      30.37S
SALUDA*        FAIR      23  16  75 CALM      30.35S
NEWPORT NEWS   CLEAR     28  19  69 CALM      30.36R
LANGLEY AFB    CLEAR     26  19  74 NW5       30.36R
FORT EUSTIS    CLEAR     26  18  71 VRB1      30.34R
WILLIAMSBURG*    N/A     27  19  74 CALM      30.37R
HR EXEC AP*    FAIR      21  19  93 CALM      30.38R
FRANKLIN*      CLEAR     23  17  80 CALM      30.37S
WAKEFIELD      CLEAR     22  16  78 CALM      30.36R
$$

VAZ020-022-025-037-045-291400-
WEST CENTRAL AND SOUTHWEST VIRGINIA

CITY           SKY/WX    TMP DP  RH WIND       PRES   REMARKS
STAUNTON*      PTCLDY    19  15  84 CALM      30.25S
WAYNESBORO*    FAIR      18  12  79 CALM      30.22S
HOT SPRINGS VA MOCLDY    26  10  52 S13G20    30.08S WCI  15
LYNCHBURG      PTCLDY    22  10  60 CALM      30.30S
DANVILLE       PTCLDY    22  17  81 CALM      30.33R
SOUTH BOSTON*  FAIR      20  18  89 CALM      30.34S
MARTINSVILLE   PTCLDY    20  17  90 CALM      30.32S
ROANOKE        PTCLDY    23  16  74 CALM      30.28S
BLACKSBURG     PTCLDY    21  15  78 CALM      30.24S
DUBLIN*        PTCLDY    22  20  91 CALM      30.23R
MARION*        MOCLDY    25  18  75 SE5       30.20R
HILLSVILLE*    PTCLDY    29  15  55 S6        30.18S
RICHLANDS*     FAIR      34  12  40 S5        30.11S
WISE*          MOCLDY    36  16  44 SW10      30.11S
ABINGDON*      MOCLDY    32  20  62 E8        30.16S
$$

MDZ021>025-VAZ099-100-291400-
SOUTHERN MARYLAND AND THE DELMARVA PENINSULA

CITY           SKY/WX    TMP DP  RH WIND       PRES   REMARKS
PATUXENT RIVER MOCLDY    24  15  68 W3        30.35R
BAY BRIDGE APT   N/A     28  12  50 NE3       30.35S
LEONARDTOWN    CLEAR     21  10  63 CALM      30.36S
DOVER          CLEAR     20  13  75 N2        30.34S
GEORGETOWN     CLEAR     22  11  62 CALM      30.35S
EASTON         PTCLDY    23  18  80 CALM      30.38R
CAMBRIDGE      CLEAR     23  19  86 CALM      30.35R
SALISBURY      CLEAR     22  16  78 CALM      30.35R
OCEAN CITY     CLEAR     23  12  62 N6        30.35R
WALLOPS ISLAND PTCLDY    23  12  62 N7        30.35R
ACCOMACK*      CLEAR     23  14  68 N3        30.35R
$$

NCZ012>017-030>032-291400-
NORTH CENTRAL AND EASTERN NORTH CAROLINA

CITY           SKY/WX    TMP DP  RH WIND       PRES   REMARKS
ROANOKE RAPIDS FAIR      21  19  93 CALM      30.36S
RALEIGH        MOCLDY    28  11  48 CALM      30.35S
ELIZABETH CITY CLEAR     25  18  74 W3        30.37R
AHOSKIE*       PTCLDY    20  17  85 CALM      30.37S
EDENTON*       CLEAR     23  18  82 CALM      30.37R
CURRITUCK*     CLEAR     26  16  64 CALM      30.36S
KILL DEVIL HLS CLEAR     32  24  74 NW5       30.34R
MANTEO         CLEAR     34  21  60 N5        30.36R
CAPE HATTERAS  CLEAR     35  22  58 N8        30.34R
TARBORO*       FAIR      23  21  93 CALM      30.38S
GOLDSBORO      PTCLDY    24  24  97 CALM      30.37R
WASHINGTON     CLEAR     24  18  80 CALM      30.37S
GREENVILLE     PTCLDY    25  21  86 CALM      30.38R
NEW BERN       CLEAR     28  22  78 CALM      30.39R
WILMINGTON     PTCLDY    28  20  71 CALM      30.38R
$$

VAZ048-291400-
ELSEWHERE

CITY           SKY/WX    TMP DP  RH WIND       PRES   REMARKS
HARRISBURG PA  MOCLDY    14   8  77 E3        30.30F
BALTIMORE      MOCLDY    21  12  68 CALM      30.32F
ANNAPOLIS      CLEAR     25  15  66 CALM      30.34F
ANDREWS AFB    CLEAR     19  12  73 NE3       30.32S
PHILADELPHIA   PTCLDY    23   7  50 NE3       30.35S
HENDERSON NC   PTCLDY    25  21  83 CALM      30.34S
GREENSBORO     MOCLDY    27  18  69 S5        30.29S
ROCKY MOUNT    PTCLDY    23  20  88 S3        30.37R
$$

VAZ100-291400-
MARINE

STATION/POSITION TIME  TEMP    WIND        PRES    WAVE   SWELL
                       AIR SEA DIR/SP/G            HT/PER HT/PER
                 (UTC) (F)     (DEG/KT/KT) (MB)    (FT/S) (FT/S)
BRANDYWINE LGT   1300   27 36   20/ 10/ 12 1027.7F
CAPE MAY NJ      1300   25 35   10/  3/  6 1027.2S
LEWES DE         1300   29 36   10/  8/  9 1027.4F
15NM E FENWICK I 1300   33 40              1027.0R   4/ 7
OCEAN-CITY-INLET 1300   25 37  340/  5/  6 1027.1S
WACHAPREAGUE VA  1300   28 36  320/  3/  6 1027.8R
THOMAS POINT MD  1300   28 35   40/  6/  7 1028.3F
COVE POINT MD    1300   29      20/  6/  7 1027.3F
SOLOMONS ISLAND  1300      37                N/A
BISHOPS HEAD MD  1300   27 32  350/  3/  4 1027.3S
PINEY POINT MD   1300           40/  4/  5   N/A
CAMBRIDGE MD     1300   28 34  350/  5/  5 1027.6S
LEWISETTA VA     1300   30 35  240/  2/  2 1027.7R
RAPPAHANNOCK LGT 1300           20/  8/ 10 1028.1S
YORK RVR RNG VA  1300   32      10/  8/  9 1027.2R
YORKTOWN VA      1300   29 38  360/  7/  8 1027.8R
DOMINION TERM VA 1300   31      50/  1/  3 1028.1R
KIPTOPEKE VA     1300      43   50/  4/  6   N/A
CHES BAY BRIDGE  1300   33 40   10/  9/ 11 1027.1F
CAPE HENRY VA    1300   32      10/ 11/ 12 1026.3S
CHESAPEAKE LGHT  1200   33      10/ 11/ 13 1027.6R
WILLOUBY STN VA  1300   31     350/  7/  8 1028.3R
S CRANEY ISL VA  1300           10/  7/  9 1027.9R
CAPE HENRY BUOY  1200      42                N/A     4/ 7   2/13
CAPE CHARLES BUO 1300      41                N/A     3/12   3/12
OFFSHORE WE BUOY 1300      43                N/A     4/ 7   5/ 7
64NM E OF VA BCH 1300   38 48  360/ 12/ 16 1026.3R   5/12   5/12
DUCK PIER NC     1300   31 41  310/  8/ 10 1026.9R
44100 DUCK FRF   1300      44                N/A     5/12   2/12
44056 DUCK FRF   1300      42                N/A     4/ 7   2/11
OREGON INLET NC  1300   33 41  320/  7/  9 1027.6R
HATTERAS NC      1300   36 44  350/ 10/ 13 1027.7R
DIAMOND SHLS NC  1300   40 71  350/ 14/ 17 1026.9R   7/10   7/10
CAPE LOOKOUT NC  1200   34     340/  7/  9 1027.7R
$$



USA.gov is the U.S. government's official web portal to all federal, state and local government web resources and services.